TimeEEST,TemperatureF,Dew PointF,Humidity,Sea Level PressureIn,VisibilityMPH,Wind Direction,Wind SpeedMPH,Gust SpeedMPH,PrecipitationIn,Events,Conditions,WindDirDegrees,DateUTC
12:20 AM,55.4,41.0,58,30.01,6.2,ESE,4.6,-,N/A,,Scattered Clouds,110,2013-09-24 21:20:00
12:50 AM,51.8,41.0,67,30.01,6.2,Variable,1.2,-,N/A,,Scattered Clouds,0,2013-09-24 21:50:00
1:20 AM,50.0,39.2,66,30.01,6.2,SSW,3.5,-,N/A,,Scattered Clouds,200,2013-09-24 22:20:00
1:50 AM,50.0,39.2,66,30.01,6.2,ESE,3.5,-,N/A,,Scattered Clouds,120,2013-09-24 22:50:00
2:20 AM,48.2,39.2,71,30.01,6.2,Variable,1.2,-,N/A,,Partly Cloudy,0,2013-09-24 23:20:00
2:50 AM,48.2,39.2,71,30.01,6.2,Variable,2.3,-,N/A,,Partly Cloudy,0,2013-09-24 23:50:00
3:20 AM,46.4,37.4,71,30.01,6.2,Variable,1.2,-,N/A,,Partly Cloudy,0,2013-09-25 00:20:00
3:50 AM,46.4,39.2,76,30.01,6.2,Calm,Calm,-,N/A,,Partly Cloudy,0,2013-09-25 00:50:00
4:20 AM,46.4,39.2,76,30.01,6.2,Calm,Calm,-,N/A,,Partly Cloudy,0,2013-09-25 01:20:00
4:50 AM,46.4,39.2,76,30.01,6.2,Variable,1.2,-,N/A,,Partly Cloudy,0,2013-09-25 01:50:00
5:20 AM,44.6,35.6,71,30.04,6.2,Variable,2.3,-,N/A,,Partly Cloudy,0,2013-09-25 02:20:00
5:50 AM,41.0,35.6,81,30.04,6.2,Variable,1.2,-,N/A,,Partly Cloudy,0,2013-09-25 02:50:00
6:20 AM,41.0,33.8,76,30.04,6.2,North,4.6,-,N/A,,Partly Cloudy,10,2013-09-25 03:20:00
6:50 AM,41.0,35.6,81,30.04,6.2,NE,5.8,-,N/A,,Partly Cloudy,40,2013-09-25 03:50:00
7:20 AM,41.0,33.8,76,30.04,6.2,Variable,1.2,-,N/A,,Partly Cloudy,0,2013-09-25 04:20:00
7:50 AM,42.8,35.6,76,30.04,6.2,Variable,1.2,-,N/A,,Partly Cloudy,0,2013-09-25 04:50:00
8:20 AM,48.2,37.4,66,30.06,6.2,NE,3.5,-,N/A,,Partly Cloudy,40,2013-09-25 05:20:00
8:50 AM,51.8,41.0,67,30.06,6.2,Variable,1.2,-,N/A,,Partly Cloudy,0,2013-09-25 05:50:00
9:00 AM,52,39,51,30.02,12,,1.2,,,,Scattered Clouds,,2013-09-25 06:00:00
9:20 AM,53.6,41.0,62,30.06,6.2,South,4.6,-,N/A,,Partly Cloudy,190,2013-09-25 06:20:00
9:50 AM,57.2,42.8,59,30.06,6.2,SSW,5.8,-,N/A,,Partly Cloudy,200,2013-09-25 06:50:00
10:20 AM,59.0,42.8,55,30.06,6.2,SW,11.5,-,N/A,,Scattered Clouds,220,2013-09-25 07:20:00
10:50 AM,60.8,42.8,52,30.06,6.2,SW,11.5,-,N/A,,Scattered Clouds,220,2013-09-25 07:50:00
11:20 AM,60.8,42.8,52,30.04,6.2,WSW,15.0,-,N/A,,Scattered Clouds,250,2013-09-25 08:20:00
11:50 AM,64.4,41.0,42,30.04,6.2,SW,16.1,-,N/A,,Scattered Clouds,230,2013-09-25 08:50:00
12:20 PM,64.4,41.0,42,30.04,6.2,SW,13.8,-,N/A,,Scattered Clouds,230,2013-09-25 09:20:00
12:50 PM,66.2,41.0,40,30.04,6.2,SW,16.1,-,N/A,,Scattered Clouds,230,2013-09-25 09:50:00
1:20 PM,66.2,39.2,37,30.04,6.2,West,17.3,-,N/A,,Scattered Clouds,260,2013-09-25 10:20:00
1:50 PM,66.2,39.2,37,30.04,6.2,West,17.3,-,N/A,,Scattered Clouds,260,2013-09-25 10:50:00
2:20 PM,66.2,41.0,40,30.04,6.2,WSW,11.5,-,N/A,,Scattered Clouds,240,2013-09-25 11:20:00
2:50 PM,66.2,41.0,40,30.04,6.2,West,16.1,-,N/A,,Scattered Clouds,260,2013-09-25 11:50:00
3:00 PM,66,40,28,29.99,12,West,16.1,,,,Partly Cloudy,260,2013-09-25 12:00:00
3:20 PM,68.0,41.0,37,30.04,6.2,West,16.1,-,N/A,,Scattered Clouds,260,2013-09-25 12:20:00
3:50 PM,68.0,41.0,37,30.04,6.2,West,13.8,-,N/A,,Scattered Clouds,270,2013-09-25 12:50:00
4:20 PM,68.0,41.0,37,30.04,6.2,West,11.5,-,N/A,,Scattered Clouds,270,2013-09-25 13:20:00
4:50 PM,68.0,41.0,37,30.04,6.2,West,10.4,-,N/A,,Scattered Clouds,270,2013-09-25 13:50:00
5:20 PM,68.0,39.2,35,30.04,6.2,West,12.7,-,N/A,,Scattered Clouds,260,2013-09-25 14:20:00
5:50 PM,68.0,39.2,35,30.06,6.2,WNW,10.4,-,N/A,,Scattered Clouds,290,2013-09-25 14:50:00
6:20 PM,66.2,39.2,37,30.06,6.2,WNW,10.4,-,N/A,,Scattered Clouds,290,2013-09-25 15:20:00
6:50 PM,64.4,37.4,37,30.06,6.2,WNW,9.2,-,N/A,,Scattered Clouds,300,2013-09-25 15:50:00
7:20 PM,62.6,37.4,39,30.09,6.2,WNW,9.2,-,N/A,,Partly Cloudy,290,2013-09-25 16:20:00
7:50 PM,64.4,39.2,40,30.09,6.2,NW,12.7,-,N/A,,Partly Cloudy,310,2013-09-25 16:50:00
8:20 PM,62.6,39.2,42,30.12,6.2,Variable,3.5,-,N/A,,Partly Cloudy,0,2013-09-25 17:20:00
8:50 PM,60.8,39.2,45,30.12,-9999.0,Variable,1.2,-,N/A,,Clear,0,2013-09-25 17:50:00
9:00 PM,61,38,31,30.08,12,NNE,1.2,,,,,30,2013-09-25 18:00:00
9:20 PM,60.8,39.2,45,30.12,-9999.0,WNW,5.8,-,N/A,,Clear,300,2013-09-25 18:20:00
9:50 PM,59.0,39.2,48,30.15,-9999.0,Variable,2.3,-,N/A,,Clear,0,2013-09-25 18:50:00
10:20 PM,59.0,39.2,48,30.15,-9999.0,West,4.6,-,N/A,,Clear,280,2013-09-25 19:20:00
10:50 PM,57.2,39.2,51,30.15,-9999.0,East,3.5,-,N/A,,Clear,80,2013-09-25 19:50:00
11:20 PM,55.4,41.0,58,30.15,-9999.0,NE,4.6,-,N/A,,Clear,40,2013-09-25 20:20:00
11:50 PM,53.6,39.2,58,30.15,-9999.0,SE,5.8,-,N/A,,Clear,140,2013-09-25 20:50:00